Powrót do katalogu

STARLINK-30235

AktywnyŁącznośćVLEO
NORAD 57294·PAYLOAD·🇺🇸 United States

Wystrzelony Jul 10, 2023 z Cape Canaveral Space Force Station

Loading…

Następne Przeloty (najbliższe 24 godziny)

TLE

ŚwieżeSource: CelesTrak SupGP

Epoka: Sep 14, 2026, 22:26 UTC

1 57294C 23096E   26257.93520833  .00174510  00000+0  32676-2 0  2572
2 57294  43.0016 231.2442 0001495 272.7603 198.1650 15.47732161    15

Śledź STARLINK-30235 w czasie rzeczywistym z AllMySat

Download on the App Store